User: anonymous
Location: Mactaquac Provincial Park
(45.9573°N, 66.8897°W)
Time: 04:04:56
(UTC-03:00)
Language:

Cosmos 1867 - Orbit

View from above orbital plane
View from above orbital plane
View from above satellite
View from above satellite

Ground track
Ground track

The orbit data is extracted from the following two-line orbital elements,

1 18187U 87060A   14238.97875288 -.00000006  00000-0  00000+0 0  1378
2 18187 065.0103 217.8577 0014646 255.8449 104.1484 14.31023808419878
Epoch (UTC): 26 August 2014 23:29:24
Eccentricity: 0.0014646
inclination: 65.0103°
perigee height: 778 km
apogee height: 799 km
right ascension of ascending node: 217.8577°
argument of perigee: 255.8449°
revolutions per day: 14.31023808
mean anomaly at epoch: 104.1484°
orbit number at epoch: 41987

The dashed part of the orbit path shows where the satellite is in the earth's shadow,  

DLR